Weather Service Report


112 
ASUS44 KOUN 291410
RWROK 

WEATHER ROUNDUP FOR OKLAHOMA
NATIONAL WEATHER SERVICE NORMAN OK
900 AM CDT SUN MAR 29 2015

NOTE: "FAIR" INDICATES FEW OR NO CLOUDS BELOW 12,000 FEET WITH NO
      SIGNIFICANT WEATHER AND/OR OBSTRUCTIONS TO VISIBILITY.

OKZ001>007-009>012-014-015-017-291500-
NORTHWEST OKLAHOMA AND THE PANHANDLE
  
CITY           SKY/WX    TMP DP  RH WIND       PRES   REMARKS
GAGE           SUNNY     57  47  69 W9        29.94R                  
GUYMON         SUNNY     59  37  44 N23G32    30.07R                  
ENID/WOODRING  MOSUNNY   50  46  87 S10       29.90F                  
$$

OKZ016-021>023-033>039-044-045-291500-
SOUTHWEST OKLAHOMA
  
CITY           SKY/WX    TMP DP  RH WIND       PRES   REMARKS
LAWTON/REGL    SUNNY     57  48  72 SE12      29.96S                  
LAWTON/FT SILL SUNNY     57  49  76 S14       29.95R                  
FREDERICK      SUNNY     54  47  77 SE8       29.93R                  
CLINTON        SUNNY     54  47  77 S12G25    29.94R                  
HOBART         SUNNY     57  48  72 S9        29.94R                  
ALTUS AFB      SUNNY     54  49  83 SE10      29.93S                  
$$

OKZ018>020-024>031-291500-
CENTRAL OKLAHOMA
  
CITY           SKY/WX    TMP DP  RH WIND       PRES   REMARKS
OKLAHOMA CITY  MOSUNNY   52  44  74 S17       29.94F                  
OKC/WILEY POST SUNNY     53  45  74 S20       29.93F                  
OKC/TINKER AFB SUNNY     51  43  74 S18       29.94S                  
STILLWATER     SUNNY     51  41  68 S20G25    29.93F                  
GUTHRIE        SUNNY     54  43  66 S14G20    29.92F                  
$$

OKZ008-013-054>072-291500-
NORTHEAST OKLAHOMA
  
CITY           SKY/WX    TMP DP  RH WIND       PRES   REMARKS
TULSA          MOSUNNY   46  37  71 S15       29.97F                  
TULSA/JONES    SUNNY     46  37  71 S13G21    29.98F                  
PONCA CITY     MOSUNNY   51  42  71 S9G20     29.94R                  
BARTLESVILLE   SUNNY     47  37  68 S12G20    29.99R                  
MUSKOGEE       SUNNY     45  36  70 SE16      30.03F                  
$$

OKZ032-040>043-046>053-073>077-291500-
SOUTH CENTRAL/SOUTHEAST OKLAHOMA
  
CITY           SKY/WX    TMP DP  RH WIND       PRES   REMARKS
ARDMORE/DWNTWN SUNNY     52  43  71 SE9       30.03R                  
MCALESTER      SUNNY     53  39  59 VRB7      30.04R                  
$$


Return to Home page


Western Regional Climate Center, wrcc@dri.edu